This demonstration page uses our WeatherBlox Daily Observations layout. Learn more.

Left ArrowRight Arrow

34.02893, -84.19858

Hourly Observations for October 21, 2019

Temp ( °F °C ) Dew Point ( °F °C ) Humidity (%) Winds ( mph kmh ) Pressure ( in mb ) Visibility ( mi km ) Precip ( " mm )
12:53 am 00:53 Clear 58 14.4 57 13.9 97 97 Calm 29.96 1015 8 13 0.00 0.00
1:53 am 01:53 Clear with Mist and Fog 57 13.9 57 13.9 100 100 Calm 29.96 1015 5 8 0.00 0.00
2:53 am 02:53 Clear with Mist and Fog 55 12.8 55 12.8 100 100 Calm 29.96 1015 6 10 0.00 0.00
3:06 am 03:06 Clear with Mist and Fog 56 13.3 55 12.8 97 97 Calm 29.97 1015 2 2 0.00 0.00
3:10 am 03:10 Clear with Fog 55 12.8 55 12.8 100 100 Calm 29.97 1015 1 1 0.00 0.00
3:18 am 03:18 Mostly Cloudy with Fog 54 12.2 53 11.7 97 97 Calm 29.97 1015 0 0 0.00 0.00
3:53 am 03:53 Mostly Cloudy with Mist and Fog 54 12.2 54 12.2 100 100 Calm 29.95 1014 1 1 0.00 0.00
3:55 am 03:55 Mostly Clear with Mist and Fog 54 12.2 54 12.2 100 100 Calm 29.97 1015 2 2 0.00 0.00
3:58 am 03:58 Mostly Clear with Mist and Fog 55 12.8 54 12.2 96 96 Calm 29.97 1015 3 5 0.00 0.00
4:05 am 04:05 Mostly Clear with Mist and Fog 54 12.2 54 12.2 100 100 Calm 29.97 1015 2 2 0.00 0.00
4:08 am 04:08 Mostly Cloudy with Mist and Fog 54 12.2 54 12.2 100 100 Calm 29.97 1015 1 1 0.00 0.00
4:15 am 04:15 Clear with Mist and Fog 54 12.2 54 12.2 100 100 Calm 29.97 1015 1 1 0.00 0.00
4:19 am 04:19 Clear with Mist and Fog 54 12.2 53 11.7 97 97 Calm 29.97 1015 2 3 0.00 0.00
4:27 am 04:27 Clear with Mist and Fog 53 11.7 53 11.7 100 100 Calm 29.97 1015 3 5 0.00 0.00
4:39 am 04:39 Clear with Mist and Fog 54 12.2 53 11.7 97 97 Calm 29.97 1015 2 3 0.00 0.00
4:50 am 04:50 Clear with Mist and Fog 54 12 54 12 100 100 Calm 29.97 1015 1 1 0.00 0.00
4:53 am 04:53 Clear with Fog 53 11.7 53 11.7 100 100 Calm 29.94 1014 1 1 0.00 0.00
5:01 am 05:01 Clear with Mist and Fog 54 12.2 54 12.2 100 100 Calm 29.97 1015 1 2 0.00 0.00
5:17 am 05:17 Clear with Mist and Fog 53 11.7 53 11.7 100 100 Calm 29.97 1015 3 5 0.00 0.00
5:42 am 05:42 Clear with Mist and Fog 53 11.7 53 11.7 100 100 Calm 29.97 1015 2 3 0.00 0.00
5:53 am 05:53 Clear with Mist and Fog 53 11.7 53 11.7 100 100 Calm 29.94 1014 3 4 0.00 0.00
5:58 am 05:58 Clear with Mist and Fog 53 11.7 53 11.7 100 100 Calm 29.97 1015 1 1 0.00 0.00
6:10 am 06:10 Clear with Mist and Fog 53 11.7 53 11.7 100 100 Calm 29.97 1015 2 2 0.00 0.00
6:22 am 06:22 Clear with Mist and Fog 53 11.7 53 11.7 100 100 Calm 29.97 1015 2 3 0.00 0.00
6:53 am 06:53 Clear 53 11.7 53 11.7 100 100 Calm 29.96 1015 10 16 0.00 0.00
7:53 am 07:53 Sunny 56 13.3 56 13.3 100 100 Calm 29.98 1015 10 16 0.00 0.00
8:53 am 08:53 Sunny 59 15 58 14.4 96 96 Calm 29.99 1016 7 11 0.00 0.00
9:26 am 09:26 Mostly Cloudy 60 15.6 59 15 96 96 Calm 30.03 1017 10 16 0.00 0.00
9:53 am 09:53 Cloudy 61 16.1 60 15.6 97 97 Calm 30.00 1016 9 14 0.00 0.00
10:32 am 10:32 Partly Cloudy 64 17.8 61 16.1 90 90 SE 6 9 30.00 1016 10 16 0.00 0.00
10:53 am 10:53 Sunny 66 18.9 61 16.1 84 84 VRB 3 6 30.02 1017 10 16 0.00 0.00
11:53 am 11:53 Sunny 68 20 62 16.7 81 81 undefined N/A 29.98 1015 10 16 0.00 0.00
12:53 pm 12:53 Partly Cloudy 72 22.2 63 17.2 73 73 SSE 9 15 29.97 1015 10 16 0.00 0.00
1:03 pm 13:03 Mostly Cloudy 72 22.2 62 16.7 71 71 S 10 17 29.97 1015 10 16 0.00 0.00
1:20 pm 13:20 Partly Cloudy 72 22.2 62 16.7 71 71 S 8 13 29.97 1015 10 16 0.00 0.00
1:53 pm 13:53 Mostly Sunny 72 22.2 62 16.7 71 71 VRB 7 11 29.96 1015 10 16 0.00 0.00
2:53 pm 14:53 Sunny 73 22.8 61 16.1 66 66 SE 8 13 29.95 1014 10 16 0.00 0.00
4:53 pm 16:53 Mostly Cloudy 73 22.8 62 16.7 69 69 SSE 8 13 29.95 1014 10 16 0.00 0.00
5:53 pm 17:53 Mostly Cloudy 73 22.8 62 16.7 69 69 SE 6 9 29.93 1014 10 16 0.00 0.00
6:53 pm 18:53 Partly Cloudy 70 21.1 62 16.7 76 76 VRB 3 6 29.93 1014 10 16 0.00 0.00
7:53 pm 19:53 Partly Cloudy 70 21.1 62 16.7 76 76 SE 3 6 29.95 1014 10 16 0.00 0.00
8:53 pm 20:53 Mostly Cloudy 69 20.6 62 16.7 78 78 VRB 5 7 29.95 1014 10 16 0.00 0.00
9:53 pm 21:53 Cloudy 69 20.6 63 17.2 81 81 ESE 3 6 29.94 1014 10 16 0.00 0.00
10:53 pm 22:53 Partly Cloudy 68 20 63 17.2 84 84 VRB 3 6 29.93 1014 10 16 0.00 0.00
11:53 pm 23:53 Mostly Clear 67 19.4 63 17.2 87 87 Calm 29.91 1013 10 16 0.00 0.00

Powered by AerisWeather